Voltar ao catálogo

IUS R/B(1)

AtivoGTO
NORAD 24739·ROCKET BODY·🇺🇸 United States

Lançado Feb 23, 1997 de Cape Canaveral Space Force Station

Loading…

TLE

EnvelhecendoSource: Space-Track

Época: Sep 14, 2026, 06:21 UTC

1 24739U 97008C   26257.26492841  .00001072  00000-0  66971-3 0  9999
2 24739  27.6927 235.8145 7149206  59.0219 352.0255  2.41744586 64938

Acompanhe IUS R/B(1) em tempo real com AllMySat

Download on the App Store